Location: Columbia
(38.9520°N, 92.3340°W)
Time: 16:28:52
(UTC-05:00)

FENGYUN 3A - Visible Passes

Search period start: 22 May 2017 00:00
Search period end: 01 June 2017 00:00
Orbit: 819 x 833 km, 98.4° (Epoch: 21 May)

Date Brightness Start Highest point End Pass type
(mag) Time Alt. Az. Time Alt. Az. Time Alt. Az.
23 May 6.7 21:48:58 10° W 21:49:31 10° W 21:50:03 10° W visible
24 May 6.2 21:27:06 10° SW 21:30:22 16° W 21:33:39 10° NW visible
25 May 5.9 21:06:59 10° SSW 21:11:17 24° W 21:15:37 10° NW visible
29 May 6.3 21:33:26 10° WSW 21:36:11 14° W 21:38:56 10° WNW visible
30 May 6.1 21:13:03 10° SW 21:17:05 21° W 21:21:07 10° NW visible
31 May 5.5 20:53:17 10° SSW 20:58:01 32° W 21:02:48 10° NNW visible
